www.pogodaiklimat.ru

Погода и климат >> Архив погоды >> Россия >> Якутия >> Олекминск


АРХИВ ПОГОДЫ в Олекминске

Время (UTC), дата Ветер
(напр.,м/с)
 
Видим.   Явления Облачность Т
(С)
Тd
(С)
f
(%)
Тe
(С)
Тes
(С)
Комфортность P
(гПа)
Po
(гПа)
Тmin
(С)
Tmax
(С)
R
(мм)
R24
(мм)
S
(см)
00 15.07 В 1 10 км 10/5 300 м
[Cu hum Ac trans Ci fib]
+20.5 +14.7 69 +24 +26 комфорт 1008.1 981.8 +14.0
03 15.07 В 3 20 км дым 10/3 600 м
[Cu hum Ac trans Ci fib]
+25.0 +17.3 62 +29 +33 душно 1007.7 981.8
06 15.07 СВ 4 20 км дым 10/4 600 м
[Cu med, cong Ac trans Ci fib]
+27.6 +18.0 56 +32 +34 очень
душно
1007.3 981.5
09 15.07 СВ 4 50 км 10/5 600 м
[Cb cap Ac trans Ci fib]
+26.6 +17.4 57 +31 +31 душно 1006.8 981.0
12 15.07 штиль 0 20 км 10/3 600 м
[Sc Ac trans Ci fib]
+24.6 +18.5 69 +29 +29 душно 1008.3 982.4 +29.0
15 15.07 штиль 0 20 км 10/0
[Ac trans Ci fib]
+16.4 +15.2 93 +16 +16 1010.0 983.2
18 15.07 штиль 0 20 км 10/0
[Ac trans Ci fib]
+14.8 +13.7 93 +14 +14 1011.0 984.0
21 15.07 СВ 2 50 км 10/0
[Ac trans Ci fib]
+15.9 +12.1 78 +16 +16 1011.7 984.7
00 16.07 СВ 4 50 км 10/3 1000 м
[Sc Ac trans Ci sp]
+18.4 +12.9 70 +19 +20 1012.1 985.5 +14.4
03 16.07 СВ 4 4000 м дым 10/3 1000 м
[Sc Ac trans Ci fib]
+21.3 +11.4 53 +23 +26 комфорт 1012.2 985.8
06 16.07 СВ 1 600 м дым 10/3 1000 м
[Sc Ac trans Ci fib]
+22.0 +13.8 60 +25 +30 комфорт 1011.2 984.8
09 16.07 СВ 1 10 км 10/0
[Ac trans Ci fib]
+24.1 +9.9 41 +25 +28 комфорт 1010.5 984.3
12 16.07 штиль 0 10 км дым 10/0
[Ci fib]
+20.5 +14.1 67 +23 +23 комфорт 1010.8 984.2 +24.2
15 16.07 штиль 0 10 км дым 10/0
[Ci fib]
+12.4 +9.5 82 +12 +12 1011.8 984.5
18 16.07 штиль 0 10 км местами туман поземный 10/0
[Ac trans Ci fib]
+9.2 +8.8 97 +8 +8 1012.3 984.6
21 16.07 штиль 0 2000 м дымка 10/3 300 м
[St Ac trans Ci fib]
+9.4 +9.4 100 +8 +9 1012.3 984.6
00 17.07 З 1 4000 м 10/0
[Ci fib]
+15.7 +12.0 79 +16 +23 1011.3 984.3 +7.8
03 17.07 З 2 4000 м дым 10/0
[Ci fib]
+23.7 +10.7 44 +25 +35 комфорт 1009.2 983.0
06 17.07 З 3 4000 м дым 10/0
[Ci fib]
+26.9 +10.9 37 +28 +35 жарко 1006.4 980.6
09 17.07 З 3 4000 м дым 10/0
[Ci fib]
+27.0 +12.4 40 +28 +31 жарко 1004.1 978.3
12 17.07 З 1 4000 м 10/0
[Ci fib]
+22.3 +12.7 55 +25 +25 комфорт 1003.4 977.4 +27.3
15 17.07 З 2 4000 м дым 10/0
[Ci fib]
+16.0 +11.4 74 +16 +16 1003.3 976.6
18 17.07 З 1 10 км дым 10/0
[Ac trans Ci fib]
+13.7 +11.6 87 +14 +14 1003.1 776.2
21 17.07 СВ 4 50 км дым 10/3 1000 м
[Sc Ac trans Ci fib]
+17.8 +15.8 88 +18 +18 1002.7 976.2
00 18.07 СВ 4 20 км слаб. ливневой дождь 10/8 600 м
[Cb cap Ac trans]
+13.9 +13.5 97 +12 +13 1005.7 978.7 +13.5 3
03 18.07 С 5 50 км {ливн. осадки} 10/5 600 м
[Cb cap Ac trans Ci fib]
+17.5 +12.3 72 +17 +19 1005.9 979.5
06 18.07 С 4 50 км {ливн. осадки} 10/5 600 м
[Cb cap Ci fib]
+21.0 +8.7 45 +23 +26 комфорт 1005.3 979.0
09 18.07 С 3 50 км 10/5 600 м
[Cb cap Ci fib]
+20.4 +7.9 44 +22 +23 комфорт 1005.6 979.1
12 18.07 С 4 50 км 10/3 1000 м
[Sc Ac trans Ci fib]
+17.8 +8.8 56 +18 +18 1007.6 981.0 +22.1 0.0
15 18.07 С 3 20 км 10/0
[Ac trans Ci fib]
+12.4 +8.2 76 +11 +11 1010.1 982.8
18 18.07 С 1 20 км 10/0
[Ac trans Ci fib]
+9.1 +7.0 87 +8 +8 1011.1 983.6
21 18.07 С 2 10 км 10/0
[Ac trans Ci fib]
+9.7 +6.3 79 +8 +9 1011.9 984.4
00 19.07 СВ 2 10 км 10/3 1000 м
[Cu hum Ac trans Ci fib]
+12.8 +6.1 64 +12 +14 1012.5 985.2 +7.8
03 19.07 СВ 4 50 км 10/5 600 м
[Sc Ac trans Ci fib]
+15.1 +4.4 49 +14 +16 1012.5 985.5
06 19.07 СВ 4 50 км 10/5 600 м
[Sc Ac trans Ci fib]
+17.6 +1.5 34 +17 +19 1012.3 985.5
09 19.07 СВ 4 50 км 10/5 600 м
[Sc Ac trans Ci fib]
+17.7 +0.3 31 +18 +18 1013.2 986.4
12 19.07 В 4 50 км 10/0
[Ci fib]
+14.9 +2.6 43 +14 +14 1015.5 988.2 +18.4
15 19.07 СВ 1 10 км 10/0
[Ci fib]
+6.4 +3.3 81 +5 +5 1017.6 989.5
18 19.07 штиль 0 10 км 10/0
[Ci fib]
+3.8 +2.6 92 +3 +3 1018.4 990.1
21 19.07 В 1 4000 м дым 10/0
[Ac trans Ci fib]
+4.0 +2.8 92 +2 +3 1018.9 990.8
00 20.07 В 2 10 км дым 10/0
[Ac trans Ci fib]
+13.0 +4.0 54 +12 +17 1018.5 991.0 +3.0
03 20.07 СВ 4 50 км 10/3 1000 м
[Cu hum Ci fib]
+17.3 +3.3 39 +17 +22 1017.6 990.5
06 20.07 В 5 50 км 10/3 1000 м
[Cu hum Ci fib]
+18.8 +2.9 35 +19 +22 1016.7 989.8
09 20.07 В 6
{11}
50 км 10/0
[Ci fib]
+19.8 +3.6 34 +20 +21 1015.9 989.2
12 20.07 В 2 50 км 10/0
[Ci fib]
+16.1 +4.4 46 +16 +16 1016.8 989.7 +20.2
15 20.07 В 2 50 км 10/0
[Ci fib]
+9.8 +4.7 71 +8 +8 1018.4 990.7
18 20.07 штиль 0 50 км 10/0
[Ci fib]
+6.2 +3.9 85 +5 +5 1019.4 991.3
21 20.07 В 2 50 км 10/0
[Ci fib]
+7.1 +3.8 80 +5 +6 1019.8 991.9
00 21.07 СВ 3 20 км 10/0
[Ci fib]
+13.8 +6.3 61 +13 +17 1019.5 992.2 +5.0
03 21.07 В 4 20 км 10/0
[Ci fib]
+18.0 +6.3 46 +18 +25 1018.1 991.2
06 21.07 В 4 20 км 10/0
[Ci fib]
+20.9 +6.0 38 +22 +28 комфорт 1016.2 989.5
09 21.07 В 4 20 км 10/0
[Ci fib]
+22.1 +6.2 36 +23 +25 комфорт 1014.2 987.7
12 21.07 В 2 50 км 10/0
[Ci fib]
+19.3 +7.4 46 +21 +21 комфорт 1014.2 987.4 +22.2
15 21.07 В 1 20 км 10/0
[Ci fib]
+10.6 +6.3 75 +10 +10 1014.9 987.4
18 21.07 В 1 20 км 10/0
[Ci fib]
+9.2 +5.5 78 +9 +9 1014.8 987.1

 

Местоположение метеостанции Олекминск (Якутия, Россия): широта 60.40 долгота 120.40 высота над уровнем моря 230 м.

В архиве по умолчанию представлена погода в Олекминске за последнюю неделю. Архивные данные за месяц целиком и за предыдущие месяцы, начиная с января 2011 года, Вы можете получить, выбрав интересующий диапазон дат из раскрывающегося списка и нажав кнопку "Ввод!".


*Определитесь, кто Вы:
робот инопланетянин человек

Внимание! Время в таблицах - всемирное. Для получения местного времени необходимо прибавить поправку, которая равна 9 ч.

Смотрите также архив погоды в соседних городах и на ближайших метеорологических станциях:

Погода в Килиере (Якутия, Россия) (86 км)
Погода в Тяне (Якутия, Россия) (159 км)
Погода в Маче (Якутия, Россия) (164 км)
Погода в Джикимде (Якутия, Россия) (170 км)
Погода в Сунтаре (Якутия, Россия) (247 км)
Погода в Перевозе (Иркутская область, Россия) (251 км)
Погода в Исити (Якутия, Россия) (271 км)
Погода в Тонгулахе (Якутия, Россия) (277 км)
Погода в Ленске (Якутия, Россия) (308 км)
Погода в Крестяхе (Якутия, Россия) (310 км)

Пояснения к столбцам:

Ветер - указаны скорость ветра в м/с - средняя за 10 мин, порывы в срок и между сроками (в фигурных скобках) и направление, откуда дует ветер: С - северный, СВ - северо-восточный, В - восточный, ЮВ - юго-восточный, Ю - южный, ЮЗ - юго-западный, З - западный, СЗ - северо-западный.
Видимость - горизонтальная дальность видимости в метрах или километрах. При видимости от 1 до 10 км при отсутствии осадков обычно наблюдается дымка, при ухудшении видимости до 1 км и менее - туман. В сухую погоду видимость может ухудшаться дымом, пылью или мглою.
Явления - указаны атмосферные явления, наблюдавшиеся в срок или в последний час перед сроком; фигурными скобками обозначены явления, наблюдавшиеся между сроками (за 1-3 часа до срока); квадратными скобками обозначены град или гололедные отложения с указанием их диаметра в мм.
Облачность - указаны через наклонную черту общая и нижняя облачность в баллах и высота нижней границы облаков в метрах; квадратными скобками обозначены формы облаков: Ci - перистые, Cs - перисто-слоистые, Cc - перисто-кучевые, Ac - высококучевые, As - высокослоистые, Sc - слоисто-кучевые, Ns - слоисто-дождевые, Cu - кучевые, Cb - кучево-дождевые. Подробнее классификацию облаков см. в Атласе облаков (PDF).
T - Температура воздуха - температура, измеренная на высоте 2 м над землей.
Td - Температура точки росы - температура, при понижении до которой содержащийся в воздухе водяной пар достигнет насыщения.
f - Относительная влажность воздуха - влажноcть воздуха, измеренная на высоте 2 м над землей.
Te - Эффективная температура - температура, которую ощущает одетый по сезону человек в тени. Характеристика душности погоды. При расчете учитывается влияние влажности воздуха и скорости ветра на теплоощущения человека.
Tes - Эффективная температура на солнце - температура, которую ощущает человек, с поправкой на солнечный нагрев. Характеристика знойности погоды. Зависит от высоты солнца над горизонтом, облачности и скорости ветра. Ночью, в пасмурную погоду, а также при ветре 12 м/с и более поправка равна нулю.
P - Атмосферное давление - приведенное к уровню моря атмосферное давление.
Po - Атмосферное давление - измеренное на уровне метеостанции атмосферное давление.
Tmin - Минимальная температура - минимум температуры воздуха на высоте 2 м над землей.
Tmax - Максимальная температура - максимум температуры воздуха на высоте 2 м над землей.
R - Количество осадков - Количество выпавших осадков за период времени, мм. При наведении курсора мыши на число - период времени, за который выпало указанное количество осадков.
R24 - Количество осадков - Количество выпавших осадков за 24 часа, мм.
S - Снежный покров - Высота снежного покрова, см. При наведении курсора мыши на число - состояние снежного покрова и степень покрытия местности в баллах.